Location: Unspecified
(0.0000°N, 0.0000°E)
Time: 19:11:54
(UTC+01:00)

NOSS 3-3 (A) - Visible Passes

Search period start: 20 January 2017 00:00
Search period end: 30 January 2017 00:00
Orbit: 920 x 1293 km, 63.4° (Epoch: 05 January)

Date Brightness Start Highest point End Pass type
(mag) Time Alt. Az. Time Alt. Az. Time Alt. Az.
20 Jan 5.7 05:53:51 10° S 05:59:15 33° ESE 06:04:37 10° NE visible
21 Jan 6.7 05:10:57 10° SSE 05:14:36 16° ESE 05:18:13 10° ENE visible
22 Jan 3.8 06:14:31 10° SSW 06:20:35 80° WNW 06:26:40 10° NNE visible
22 Jan 7.8 19:45:44 10° W 19:49:10 13° WSW 19:52:35 10° SW visible
23 Jan 4.7 05:30:07 10° S 05:36:00 51° ESE 05:41:51 10° NE visible
24 Jan 5.9 04:46:28 10° SSE 04:51:23 25° ESE 04:56:15 10° ENE visible
24 Jan 4.8 06:37:04 10° WSW 06:41:57 26° WNW 06:46:52 10° NNW visible
25 Jan 6.7 04:04:32 10° SE 04:06:42 12° ESE 04:08:51 10° E visible
25 Jan 3.9 05:51:27 10° SW 05:57:19 52° WNW 06:03:13 10° N visible
26 Jan 3.9 05:06:40 10° SSW 05:12:44 79° ESE 05:18:48 10° NNE visible
27 Jan 5.7 04:31:17 23° ENE 04:31:17 23° ENE 04:33:44 10° NE visible
27 Jan 5.2 06:19:07 16° WNW 06:19:07 16° WNW 06:22:25 10° NNW visible
28 Jan 5.9 05:39:03 12° N 05:39:03 12° N 05:39:30 10° N visible
